| time (UTC) | temp F | wind direction | speed knots | gust knots | rain 1hr in | rain 24hr in | rain mn in | humidity % | barometer mb |
| 20260506002019 | 60 | 185 | 1.7 | 4.3 | 0.00 | 0.02 | 0.02 | 51 | 1011.3 |
| 20260506001020 | 61 | 173 | 1.7 | 6.1 | 0.00 | 0.02 | 0.02 | 50 | 1011.3 |
| 20260505235019 | 61 | 30 | 1.7 | 5.2 | 0.00 | 0.02 | 0.02 | 50 | 1011.3 |
| 20260505234020 | 60 | 115 | 2.6 | 7.0 | 0.00 | 0.02 | 0.02 | 51 | 1011.4 |
| 20260505233020 | 60 | 131 | 2.6 | 6.1 | 0.00 | 0.02 | 0.02 | 51 | 1011.3 |
| 20260505232021 | 59 | 114 | 3.5 | 7.8 | 0.00 | 0.02 | 0.02 | 52 | 1011.4 |
| 20260505231023 | 59 | 118 | 3.5 | 7.8 | 0.00 | 0.02 | 0.02 | 54 | 1011.7 |
| 20260505230018 | 59 | 110 | 3.5 | 8.7 | 0.00 | 0.02 | 0.02 | 54 | 1011.6 |
| 20260505225018 | 59 | 160 | 3.5 | 6.1 | 0.00 | 0.02 | 0.02 | 57 | 1011.6 |
| 20260505224018 | 59 | 147 | 1.7 | 6.1 | 0.00 | 0.02 | 0.02 | 55 | 1011.7 |
| 20260505223021 | 58 | 200 | 3.5 | 7.8 | 0.01 | 0.02 | 0.02 | 56 | 1012.0 |
| 20260505222043 | 57 | 188 | 4.3 | 8.7 | 0.01 | 0.02 | 0.02 | 58 | 1012.2 |
| 20260505221018 | 58 | 193 | 5.2 | 11.3 | 0.01 | 0.02 | 0.02 | 61 | 1012.0 |
| 20260505220018 | 59 | 239 | 5.2 | 11.3 | 0.01 | 0.02 | 0.02 | 60 | 1012.4 |
| 20260505215039 | 60 | 250 | 2.6 | 7.0 | 0.01 | 0.02 | 0.02 | 57 | 1012.6 |
| 20260505214019 | 60 | 293 | 1.7 | 6.1 | 0.01 | 0.02 | 0.02 | 53 | 1012.5 |
| 20260505213019 | 61 | 318 | 3.5 | 7.0 | 0.00 | 0.01 | 0.01 | 48 | 1012.5 |
| 20260505212019 | 62 | 312 | 2.6 | 7.0 | 0.00 | 0.01 | 0.01 | 46 | 1012.5 |
| 20260505211019 | 62 | 275 | 1.7 | 5.2 | 0.00 | 0.01 | 0.01 | 46 | 1012.7 |
| 20260505210020 | 61 | 290 | 2.6 | 7.0 | 0.00 | 0.01 | 0.01 | 47 | 1012.7 |
| 20260505205040 | 62 | 296 | 2.6 | 6.1 | 0.00 | 0.01 | 0.01 | 47 | 1012.7 |
| 20260505204020 | 62 | 136 | 0.9 | 3.5 | 0.00 | 0.01 | 0.01 | 48 | 1012.9 |
| 20260505203020 | 62 | 320 | 2.6 | 6.1 | 0.00 | 0.01 | 0.01 | 47 | 1013.1 |
| 20260505202020 | 61 | 321 | 3.5 | 7.0 | 0.00 | 0.01 | 0.01 | 49 | 1013.1 |
| 20260505201021 | 60 | 352 | 3.5 | 7.8 | 0.00 | 0.01 | 0.01 | 51 | 1013.1 |
| 20260505200018 | 58 | 288 | 1.7 | 6.1 | 0.00 | 0.01 | 0.01 | 54 | 1013.2 |
| 20260505195038 | 59 | 291 | 2.6 | 7.0 | 0.00 | 0.01 | 0.01 | 53 | 1013.3 |
| 20260505194019 | 59 | 290 | 2.6 | 7.0 | 0.00 | 0.01 | 0.01 | 54 | 1013.4 |
| 20260505193022 | 60 | 287 | 1.7 | 5.2 | 0.00 | 0.01 | 0.01 | 53 | 1013.4 |
| 20260505192019 | 58 | 254 | 1.7 | 6.1 | 0.00 | 0.01 | 0.01 | 59 | 1013.5 |
| 20260505191019 | 58 | 228 | 4.3 | 8.7 | 0.00 | 0.01 | 0.01 | 57 | 1013.5 |
| 20260505190019 | 57 | 211 | 4.3 | 8.7 | 0.00 | 0.01 | 0.01 | 63 | 1013.4 |
| 20260505185019 | 59 | 188 | 6.1 | 11.3 | 0.00 | 0.01 | 0.01 | 65 | 1013.4 |
| 20260505184020 | 60 | 203 | 6.1 | 13.0 | 0.00 | 0.01 | 0.01 | 51 | 1013.5 |
| 20260505183020 | 61 | 224 | 4.3 | 10.4 | 0.00 | 0.01 | 0.01 | 47 | 1013.4 |
| 20260505182019 | 62 | 254 | 4.3 | 11.3 | 0.00 | 0.01 | 0.01 | 46 | 1013.5 |
| 20260505181021 | 63 | 266 | 2.6 | 7.8 | 0.00 | 0.01 | 0.01 | 42 | 1013.5 |
| 20260505180020 | 63 | 247 | 2.6 | 7.8 | 0.00 | 0.01 | 0.01 | 41 | 1013.5 |
| 20260505175021 | 63 | 298 | 2.6 | 6.1 | 0.00 | 0.01 | 0.01 | 42 | 1013.5 |
| 20260505174019 | 62 | 305 | 1.7 | 5.2 | 0.00 | 0.01 | 0.01 | 41 | 1013.6 |
| 20260505173021 | 61 | 319 | 2.6 | 7.0 | 0.00 | 0.01 | 0.01 | 43 | 1013.5 |
| 20260505172022 | 61 | 297 | 1.7 | 6.1 | 0.00 | 0.01 | 0.01 | 42 | 1013.7 |
| 20260505171021 | 58 | 35 | 1.7 | 6.1 | 0.00 | 0.01 | 0.01 | 45 | 1013.7 |
| 20260505170021 | 58 | 330 | 3.5 | 7.0 | 0.00 | 0.01 | 0.01 | 46 | 1013.9 |
| 20260505165018 | 57 | 322 | 2.6 | 5.2 | 0.00 | 0.01 | 0.01 | 47 | 1013.7 |
| 20260505164039 | 57 | 44 | 0.9 | 3.5 | 0.00 | 0.01 | 0.01 | 48 | 1013.7 |
| 20260505163021 | 56 | 5 | 0.9 | 4.3 | 0.00 | 0.01 | 0.01 | 50 | 1013.8 |
| 20260505162018 | 55 | 61 | 1.7 | 5.2 | 0.00 | 0.01 | 0.01 | 52 | 1013.7 |
| 20260505161020 | 54 | 7 | 2.6 | 6.1 | 0.00 | 0.01 | 0.01 | 55 | 1014.0 |
| 20260505153021 | 54 | 6 | 4.3 | 7.8 | 0.01 | 0.01 | 0.01 | 59 | 1014.3 |
| 20260505152040 | 54 | 17 | 5.2 | 9.6 | 0.01 | 0.01 | 0.01 | 59 | 1014.3 |
| 20260505151020 | 54 | 351 | 4.3 | 7.8 | 0.01 | 0.01 | 0.01 | 60 | 1014.2 |
| 20260505125040 | 58 | 313 | 0.9 | 2.6 | 0.00 | 0.00 | 0.00 | 43 | 1013.2 |
| 20260505124023 | 58 | 305 | 0.9 | 1.7 | 0.00 | 0.00 | 0.00 | 42 | 1013.4 |
| 20260505123019 | 58 | 341 | 0.0 | 1.7 | 0.00 | 0.00 | 0.00 | 42 | 1013.4 |
| 20260505122100 | 58 | 231 | 0.9 | 5.2 | 0.00 | 0.00 | 0.00 | 41 | 1013.4 |
| 20260505121020 | 58 | 249 | 0.9 | 3.5 | 0.00 | 0.00 | 0.00 | 40 | 1013.4 |
| 20260505120020 | 58 | 289 | 0.9 | 3.5 | 0.00 | 0.00 | 0.00 | 39 | 1013.3 |
| 20260505115018 | 58 | 297 | 0.9 | 3.5 | 0.00 | 0.00 | 0.00 | 39 | 1013.2 |
| 20260505114021 | 58 | 297 | 1.7 | 4.3 | 0.00 | 0.00 | 0.00 | 38 | 1013.0 |
| 20260505113021 | 58 | 332 | 0.9 | 2.6 | 0.00 | 0.00 | 0.00 | 38 | 1013.0 |
| 20260505112021 | 58 | 328 | 0.0 | 1.7 | 0.00 | 0.00 | 0.00 | 38 | 1012.9 |
| 20260505111021 | 58 | 270 | 0.0 | 1.7 | 0.00 | 0.00 | 0.00 | 37 | 1013.1 |
| 20260505102018 | 59 | 230 | 0.0 | 0.9 | 0.00 | 0.00 | 0.00 | 37 | 1013.1 |
| 20260505101039 | 59 | 103 | 0.0 | 0.0 | 0.00 | 0.00 | 0.00 | 36 | 1013.0 |
| 20260505100018 | 59 | 204 | 0.0 | 0.9 | 0.00 | 0.00 | 0.00 | 35 | 1012.9 |
| 20260505095019 | 60 | 265 | 0.0 | 0.9 | 0.00 | 0.00 | 0.00 | 34 | 1012.9 |
| 20260505094019 | 60 | 102 | 0.9 | 2.6 | 0.00 | 0.00 | 0.00 | 34 | 1012.9 |
| 20260505093020 | 61 | 39 | 1.7 | 3.5 | 0.00 | 0.00 | 0.00 | 32 | 1012.9 |
| 20260505092020 | 61 | 273 | 1.7 | 7.0 | 0.00 | 0.00 | 0.00 | 32 | 1013.1 |
| 20260505091019 | 61 | 309 | 0.9 | 3.5 | 0.00 | 0.00 | 0.00 | 32 | 1013.0 |
| 20260505090020 | 61 | 307 | 2.6 | 5.2 | 0.00 | 0.00 | 0.00 | 33 | 1013.2 |
| 20260505085017 | 61 | 333 | 2.6 | 5.2 | 0.00 | 0.00 | 0.00 | 33 | 1013.4 |
| 20260505084020 | 61 | 39 | 0.9 | 3.5 | 0.00 | 0.00 | 0.00 | 34 | 1013.5 |
| 20260505083020 | 62 | 304 | 0.9 | 2.6 | 0.00 | 0.00 | 0.00 | 33 | 1013.6 |
| 20260505082021 | 62 | 302 | 1.7 | 4.3 | 0.00 | 0.00 | 0.00 | 33 | 1013.6 |
| 20260505081022 | 62 | 306 | 1.7 | 4.3 | 0.00 | 0.00 | 0.00 | 33 | 1013.5 |
| 20260505080019 | 62 | 251 | 0.9 | 6.1 | 0.00 | 0.00 | 0.00 | 33 | 1013.7 |
| 20260505075038 | 62 | 275 | 1.7 | 6.1 | 0.00 | 0.00 | 0.00 | 33 | 1013.8 |
| 20260505074022 | 63 | 316 | 1.7 | 5.2 | 0.00 | 0.00 | 0.00 | 32 | 1013.8 |
| 20260505073043 | 63 | 292 | 2.6 | 8.7 | 0.00 | 0.00 | 0.00 | 32 | 1013.7 |
| 20260505072019 | 63 | 298 | 2.6 | 7.0 | 0.00 | 0.00 | 0.00 | 32 | 1013.5 |
| 20260505071019 | 64 | 284 | 2.6 | 8.7 | 0.00 | 0.00 | 0.00 | 31 | 1013.4 |
| 20260505070020 | 64 | 280 | 4.3 | 9.6 | 0.00 | 0.00 | 0.00 | 30 | 1013.1 |
| 20260505065019 | 64 | 275 | 3.5 | 8.7 | 0.00 | 0.00 | 0.00 | 30 | 1013.1 |
| 20260505064020 | 64 | 285 | 3.5 | 6.1 | 0.00 | 0.00 | 0.00 | 29 | 1013.1 |
| 20260505063020 | 65 | 221 | 1.7 | 7.0 | 0.00 | 0.00 | 0.00 | 28 | 1013.0 |
| 20260505062022 | 65 | 276 | 3.5 | 7.0 | 0.00 | 0.00 | 0.00 | 28 | 1013.2 |
| 20260505061020 | 65 | 265 | 2.6 | 7.8 | 0.00 | 0.00 | 0.00 | 27 | 1013.2 |
| 20260505060020 | 65 | 266 | 3.5 | 7.0 | 0.00 | 0.00 | 0.00 | 27 | 1013.1 |
| 20260505055018 | 66 | 278 | 1.7 | 5.2 | 0.00 | 0.00 | 0.00 | 26 | 1013.1 |
| 20260505054041 | 66 | 295 | 2.6 | 6.1 | 0.00 | 0.00 | 0.00 | 26 | 1013.1 |
| 20260505053040 | 66 | 276 | 2.6 | 9.6 | 0.00 | 0.00 | 0.00 | 26 | 1012.9 |
| 20260505052018 | 66 | 268 | 1.7 | 6.1 | 0.00 | 0.00 | 0.00 | 26 | 1012.9 |
| 20260505051039 | 67 | 244 | 2.6 | 6.1 | 0.00 | 0.00 | 0.00 | 26 | 1012.8 |
| 20260505041019 | 68 | 281 | 1.7 | 5.2 | 0.00 | 0.00 | 0.00 | 25 | 1012.7 |
| 20260505040019 | 68 | 305 | 0.9 | 4.3 | 0.00 | 0.00 | 0.00 | 25 | 1012.7 |
| 20260505035040 | 68 | 286 | 1.7 | 3.5 | 0.00 | 0.00 | 0.00 | 25 | 1012.8 |
| 20260505034019 | 69 | 235 | 0.9 | 2.6 | 0.00 | 0.00 | 0.00 | 24 | 1012.5 |
| 20260505033019 | 69 | 296 | 1.7 | 5.2 | 0.00 | 0.00 | 0.00 | 24 | 1012.4 |
| 20260505032040 | 69 | 306 | 1.7 | 6.1 | 0.00 | 0.00 | 0.00 | 24 | 1012.3 |
| 20260505031020 | 70 | 308 | 4.3 | 9.6 | 0.00 | 0.00 | 0.00 | 23 | 1012.1 |
| 20260505025020 | 70 | 306 | 5.2 | 9.6 | 0.00 | 0.00 | 0.00 | 22 | 1011.9 |
| 20260505024021 | 71 | 296 | 3.5 | 11.3 | 0.00 | 0.00 | 0.00 | 22 | 1011.9 |
| 20260505023020 | 71 | 291 | 3.5 | 8.7 | 0.00 | 0.00 | 0.00 | 21 | 1011.8 |
| 20260505022018 | 71 | 292 | 4.3 | 11.3 | 0.00 | 0.00 | 0.00 | 21 | 1011.8 |
| 20260505021018 | 72 | 285 | 3.5 | 8.7 | 0.00 | 0.00 | 0.00 | 22 | 1011.6 |
| 20260505020021 | 72 | 287 | 2.6 | 9.6 | 0.00 | 0.00 | 0.00 | 22 | 1011.5 |
| 20260505015021 | 72 | 281 | 4.3 | 10.4 | 0.00 | 0.00 | 0.00 | 21 | 1011.4 |
| 20260505014018 | 72 | 314 | 4.3 | 7.0 | 0.00 | 0.00 | 0.00 | 21 | 1011.3 |
| 20260505013019 | 73 | 288 | 5.2 | 9.6 | 0.00 | 0.00 | 0.00 | 21 | 1011.1 |
| 20260505012019 | 73 | 286 | 4.3 | 12.2 | 0.00 | 0.00 | 0.00 | 21 | 1011.0 |
| 20260505011022 | 73 | 277 | 4.3 | 10.4 | 0.00 | 0.00 | 0.00 | 20 | 1010.9 |
| 20260505010019 | 73 | 290 | 4.3 | 10.4 | 0.00 | 0.00 | 0.00 | 20 | 1011.0 |
| 20260505005020 | 73 | 292 | 3.5 | 8.7 | 0.00 | 0.00 | 0.00 | 19 | 1011.0 |
| 20260505004019 | 73 | 285 | 4.3 | 10.4 | 0.00 | 0.00 | 0.00 | 19 | 1011.1 |
| 20260505003100 | 74 | 294 | 4.3 | 11.3 | 0.00 | 0.00 | 0.00 | 19 | 1011.1 |